Location: Kielce
(50.8833°N, 20.6167°E)
Time: 22:37:14
(UTC+02:00)

SR - Pass Details

Date: 23 April 2021
Orbit: 573 x 882 km, 66.7° (Epoch: 09 May)

Event Time Altitude Azimuth Distance (km) Brightness Sun altitude
Rises 16:24:05 0° 319° (NW) 3,475 ? 30.4°
Reaches altitude 10° 16:26:46 10° 312° (NW) 2,513 ? 30.0°
Maximum altitude 16:32:09 40° 245° (WSW) 1,208 ? 29.2°
Drops below altitude 10° 16:37:13 10° 177° (S) 2,352 ? 28.4°
Sets 16:39:39 0° 170° (S) 3,229 ? 28.0°
